Temp
-11 -12 -12 -12 -12 -12 -12 -12 -12 -12 -12 -12 -12 -12 -12 -12 -12 -12 -12 -12 -11 -11 -12 -11 -11 -11 -11 -11 -11 -11 -11 -11
-11 -12 -12 -12 -12 -12 -12 -12 -12 -12 -12 -12 -12 -12 -12 -12 -12 -12 -12 -12 -12 -12 -12 -12 -12 -11 -11 -11 -11 -11 -11 -11
-12 -12 -12 -12 -12 -12 -12 -12 -12 -12 -12 -12 -12 -12 -12 -12 -12 -12 -12 -12 -12 -12 -12 -12 -12 -12 -11 -11 -11 -11 -11 -11
-12 -12 -12 -12 -12 -12 -12 -12 -12 -12 -12 -12 -12 -12 -12 -12 -12 -11 -11 -11 -11 -11 -11 -11 -12 -12 -11 -11 -11 -11 -11 -11
-12 -12 -12 -12 -12 -12 -12 -12 -12 -12 -12 -12 -12 -12 -12 -12 -12 -12 -12 -12 -12 -11 -11 -11 -11 -11 -11 -11 -11 -11 -11 -11
-13 -13 -13 -12 -12 -12 -12 -12 -12 -12 -12 -12 -12 -12 -12 -12 -12 -12 -12 -12 -12 -12 -12 -12 -11 -11 -11 -11 -11 -11 -11 -11
-13 -13 -13 -12 -12 -12 -12 -12 -12 -12 -12 -12 -12 -12 -12 -12 -12 -12 -12 -12 -12 -12 -12 -12 -12 -12 -12 -11 -12 -11 -11 -12
-13 -13 -13 -13 -12 -12 -12 -12 -12 -12 -12 -12 -12 -12 -12 -12 -12 -12 -12 -12 -12 -12 -12 -12 -12 -12 -12 -11 -11 -11 -11 -11
-13 -13 -13 -13 -13 -13 -13 -12 -12 -12 -12 -12 -12 -12 -12 -12 -12 -12 -12 -12 -12 -12 -12 -12 -12 -12 -12 -12 -12 -11 -11 -11
-13 -14 -14 -13 -13 -13 -13 -13 -13 -13 -12 -12 -12 -12 -12 -12 -12 -12 -12 -12 -12 -12 -12 -12 -12 -12 -12 -12 -11 -11 -11 -11
-14 -14 -14 -14 -13 -13 -13 -13 -13 -13 -13 -13 -12 -12 -12 -12 -12 -12 -12 -12 -12 -12 -12 -12 -12 -12 -12 -12 -11 -11 -11 -11
-14 -14 -14 -14 -14 -14 -14 -14 -14 -13 -13 -13 -13 -13 -13 -13 -13 -13 -13 -12 -13 -12 -12 -12 -12 -12 -12 -12 -12 -12 -12 -12
-14 -14 -14 -14 -14 -14 -14 -14 -14 -14 -14 -14 -13 -13 -13 -13 -13 -13 -13 -13 -13 -13 -13 -13 -12 -12 -12 -12 -12 -12 -12 -12
-15 -15 -15 -15 -15 -15 -15 -15 -15 -15 -15 -14 -14 -14 -14 -14 -13 -13 -13 -13 -13 -13 -13 -13 -13 -13 -12 -12 -12 -12 -12 -12
-17 -17 -17 -17 -17 -17 -17 -17 -16 -16 -16 -16 -15 -15 -15 -15 -14 -14 -14 -14 -14 -14 -13 -13 -13 -14 -13 -13 -12 -12 -13 -13
-17 -18 -18 -18 -18 -18 -17 -17 -17 -17 -17 -17 -17 -16 -16 -16 -15 -15 -14 -14 -14 -14 -14 -14 -14 -14 -14 -14 -14 -13 -13 -13
-19 -19 -19 -19 -19 -19 -19 -19 -19 -19 -19 -18 -18 -18 -17 -17 -17 -17 -16 -16 -16 -16 -15 -15 -15 -15 -15 -15 -15 -15 -14 -14
-19 -19 -20 -20 -20 -20 -20 -20 -20 -20 -20 -20 -19 -19 -19 -18 -18 -18 -17 -17 -16 -16 -16 -16 -16 -16 -15 -15 -15 -15 -15 -14
-19 -19 -20 -20 -20 -20 -21 -21 -21 -20 -20 -20 -20 -20 -20 -19 -19 -19 -18 -18 -18 -17 -17 -16 -16 -16 -16 -16 -16 -16 -16 -15
-20 -20 -20 -20 -21 -21 -21 -21 -21 -21 -21 -21 -21 -20 -21 -21 -20 -20 -19 -19 -18 -18 -18 -17 -17 -17 -17 -17 -17 -17 -16 -16
Height
5833 5833 5831 5831 5830 5829 5827 5827 5826 5823 5821 5819 5818 5818 5816 5815 5814 5813 5813 5813 5812 5811 5811 5811 5812 5811 5810 5810 5810 5810 5809 5808
5828 5827 5825 5825 5824 5823 5821 5821 5820 5818 5816 5814 5812 5813 5811 5809 5810 5809 5808 5808 5807 5806 5806 5806 5806 5807 5807 5804 5805 5805 5804 5803
5822 5821 5820 5819 5817 5816 5815 5814 5813 5812 5811 5809 5808 5807 5806 5805 5804 5803 5802 5803 5802 5801 5801 5801 5801 5801 5801 5800 5800 5800 5800 5799
5815 5814 5813 5812 5810 5809 5808 5807 5807 5806 5805 5804 5802 5801 5801 5799 5798 5798 5797 5797 5797 5797 5796 5796 5795 5795 5795 5795 5795 5795 5795 5794
5807 5806 5805 5804 5803 5802 5801 5800 5800 5800 5800 5799 5796 5795 5796 5794 5793 5792 5793 5793 5792 5791 5791 5791 5790 5789 5789 5789 5789 5789 5789 5789
5802 5800 5798 5796 5795 5795 5794 5794 5794 5793 5793 5793 5792 5790 5790 5789 5788 5786 5786 5786 5786 5786 5785 5785 5784 5784 5783 5783 5783 5783 5783 5783
5795 5793 5791 5789 5788 5786 5785 5785 5785 5785 5786 5785 5786 5784 5784 5783 5782 5781 5779 5777 5777 5777 5777 5777 5776 5776 5776 5776 5776 5776 5775 5775
5786 5784 5783 5781 5780 5778 5776 5775 5774 5775 5776 5776 5776 5775 5774 5774 5774 5773 5772 5770 5769 5769 5768 5767 5766 5766 5767 5767 5768 5767 5767 5767
5777 5775 5773 5772 5770 5769 5768 5766 5765 5765 5765 5764 5764 5764 5763 5763 5762 5761 5761 5760 5759 5758 5758 5757 5757 5757 5757 5756 5756 5758 5758 5758
5769 5768 5766 5763 5762 5760 5758 5757 5756 5754 5752 5751 5751 5751 5750 5749 5749 5748 5747 5746 5745 5745 5744 5744 5745 5745 5745 5746 5745 5746 5747 5747
5759 5756 5754 5752 5750 5748 5746 5744 5743 5742 5741 5737 5736 5736 5735 5734 5733 5733 5732 5731 5730 5729 5729 5729 5729 5729 5730 5732 5733 5734 5734 5735
5745 5743 5741 5739 5737 5735 5732 5729 5728 5727 5725 5724 5721 5719 5719 5718 5717 5716 5715 5714 5713 5712 5712 5711 5712 5713 5714 5716 5718 5720 5721 5722
5733 5731 5728 5725 5723 5720 5718 5715 5712 5710 5709 5707 5706 5703 5702 5702 5701 5699 5698 5697 5696 5695 5695 5694 5693 5693 5696 5698 5701 5703 5704 5705
5720 5717 5714 5710 5708 5705 5702 5699 5696 5694 5692 5690 5688 5687 5684 5683 5682 5681 5680 5679 5678 5678 5677 5677 5677 5675 5677 5680 5685 5686 5688 5688
5707 5705 5702 5699 5695 5691 5688 5684 5681 5679 5677 5674 5672 5669 5668 5665 5664 5663 5662 5661 5660 5659 5659 5659 5660 5658 5659 5661 5665 5668 5671 5668
5694 5691 5688 5685 5682 5679 5675 5672 5668 5665 5662 5659 5657 5654 5652 5650 5647 5646 5645 5643 5642 5641 5640 5640 5641 5640 5639 5640 5643 5648 5651 5656
5684 5681 5677 5674 5670 5665 5663 5660 5655 5652 5649 5646 5643 5640 5638 5636 5633 5631 5629 5627 5626 5624 5623 5622 5622 5622 5622 5621 5623 5626 5629 5634
5674 5670 5667 5663 5660 5657 5653 5650 5645 5642 5638 5634 5632 5629 5626 5623 5620 5617 5615 5613 5611 5609 5607 5606 5606 5606 5606 5605 5605 5607 5610 5614
5667 5662 5658 5655 5652 5648 5645 5640 5637 5633 5630 5626 5622 5620 5616 5613 5610 5606 5603 5600 5598 5595 5594 5592 5591 5591 5591 5591 5590 5591 5594 5596
5659 5656 5651 5647 5644 5640 5637 5633 5630 5626 5622 5618 5614 5611 5608 5605 5601 5598 5594 5590 5588 5586 5583 5581 5579 5579 5579 5579 5580 5580 5581 5582
Wind_Speed
35 35 36 37 37 37 38 38 37 36 36 33 29 26 22 22 20 20 19 20 21 22 22 21 21 21 22 23 24 23 25 25
35 36 37 38 39 40 41 38 36 32 30 27 22 24 22 20 20 21 21 21 21 21 22 21 21 21 21 22 24 23 25 28
35 35 36 38 39 40 40 38 35 31 30 26 25 23 22 18 17 20 21 21 22 22 23 23 21 21 22 24 24 25 26 26
32 33 34 35 37 39 38 37 34 33 31 28 25 23 23 18 18 19 20 20 20 21 21 21 21 20 21 21 22 23 24 27
30 31 32 33 34 35 35 36 35 33 31 28 26 23 23 23 21 21 21 21 22 22 21 21 21 20 21 22 21 21 22 23
33 34 35 36 35 35 36 36 36 35 32 28 26 26 27 28 29 28 27 27 27 28 28 28 27 26 26 26 26 27 26 26
37 39 40 41 40 38 38 39 38 37 35 32 31 32 34 34 34 34 34 34 34 33 33 34 34 34 33 31 30 30 31 30
39 41 42 41 42 42 42 42 42 41 40 41 42 41 41 41 41 41 41 40 39 38 38 38 38 39 39 39 38 36 34 33
39 41 41 43 44 44 45 46 47 47 48 49 50 50 50 49 49 49 48 47 47 46 45 44 44 43 43 44 44 42 40 39
40 42 44 46 47 48 49 50 51 51 51 52 53 54 55 55 54 53 53 53 53 53 53 52 52 51 49 49 49 48 46 45
47 48 49 50 52 53 53 55 57 57 58 55 56 58 58 59 60 59 60 60 61 60 60 59 58 57 56 53 53 52 51 51
53 53 54 56 58 59 59 60 61 62 62 63 61 60 62 62 64 64 64 65 64 64 62 62 60 57 56 54 54 53 52 51
49 51 53 56 57 59 62 64 65 66 66 66 67 65 65 66 66 65 65 65 64 64 63 63 62 62 59 57 55 54 55 54
51 50 52 53 55 57 60 62 63 64 66 66 67 68 65 65 65 65 63 62 61 59 58 58 59 61 61 60 57 58 57 57
46 43 44 47 51 54 56 57 59 60 62 62 63 63 63 62 62 61 61 61 60 61 61 62 61 62 62 62 60 60 60 63
48 48 50 52 54 53 53 55 56 57 57 59 59 61 62 62 63 63 64 64 64 65 65 66 66 67 67 67 66 65 65 64
52 53 57 57 58 49 48 49 49 50 51 52 52 54 55 56 57 58 59 60 62 62 65 67 68 66 64 66 66 66 67 69
51 55 57 55 40 40 40 42 44 45 46 47 47 46 47 47 48 48 49 51 52 52 53 53 53 53 54 56 57 58 57 55
55 53 41 39 38 39 39 38 39 40 40 41 41 41 41 42 42 43 43 43 43 42 44 45 47 48 47 49 46 44 47 50
33 38 34 35 35 35 35 35 38 39 38 38 38 38 37 36 36 35 35 35 33 33 34 36 36 37 40 38 39 40 41 39
Wind_Direction
271 274 276 277 278 281 283 286 291 295 298 294 290 293 293 287 281 277 277 274 269 269 265 261 260 259 261 266 267 268 271 271
272 275 276 279 282 284 285 287 290 295 300 300 288 287 288 284 278 277 275 275 271 267 266 263 261 265 267 267 271 270 277 274
270 274 279 281 282 283 285 286 286 290 293 292 291 288 285 281 277 275 270 268 264 264 263 264 264 263 264 267 272 276 279 282
271 275 279 281 282 284 284 286 284 289 288 287 286 283 283 278 275 272 269 267 267 266 266 267 264 263 266 267 268 270 275 276
270 274 279 282 283 285 285 285 282 284 284 284 283 283 281 281 278 273 269 269 267 265 262 260 260 259 263 265 266 267 271 277
277 277 277 277 279 282 283 282 281 279 277 274 276 278 279 281 281 277 275 273 271 272 271 271 271 270 270 272 273 275 274 273
274 275 276 277 277 277 277 277 276 276 273 269 269 269 271 271 271 271 273 274 274 273 274 276 276 275 274 274 275 276 274 271
271 273 275 277 278 278 276 275 273 272 271 269 269 269 268 270 271 271 269 269 270 271 272 273 275 275 275 276 277 275 272 274
270 272 272 273 274 274 275 274 274 273 272 272 272 272 271 271 272 273 274 274 273 272 273 273 274 275 274 273 274 273 273 274
275 277 277 277 277 277 276 276 275 274 272 273 273 273 274 275 275 275 275 274 274 275 275 274 274 274 274 273 270 270 269 269
278 278 278 279 279 278 278 278 278 277 278 274 274 274 274 274 275 275 275 276 276 275 275 274 274 274 273 270 268 267 266 265
280 279 278 277 277 278 278 278 278 277 277 277 275 275 275 275 276 277 277 277 276 276 276 276 274 270 270 269 267 264 262 261
279 279 280 280 279 278 277 277 276 276 275 275 276 275 276 275 274 274 274 274 274 275 275 274 273 273 272 271 269 264 260 257
277 279 279 279 278 277 276 276 276 276 277 278 277 278 277 276 276 275 274 273 272 272 272 271 270 268 267 266 264 263 261 260
287 285 282 284 284 282 281 280 279 278 277 276 277 277 276 276 275 275 275 274 272 272 271 271 270 270 268 266 262 260 259 258
292 292 291 293 297 293 285 282 282 281 281 279 279 278 277 276 275 274 273 272 271 271 271 270 270 270 270 268 265 261 260 255
288 292 293 299 301 295 290 286 284 283 283 284 284 283 282 282 281 280 279 277 275 275 274 273 274 275 275 274 272 268 264 260
290 292 296 300 299 297 293 290 290 290 290 290 290 289 287 286 284 282 280 278 275 275 274 273 273 271 270 268 267 265 261 259
290 294 295 292 295 293 292 295 296 295 294 292 292 291 290 290 290 290 288 286 285 283 279 275 272 271 271 270 269 267 265 261
289 292 291 293 292 294 294 296 298 296 294 295 294 292 292 293 294 294 295 292 285 281 273 272 271 269 270 266 268 271 267 264